Wind_Speed
19 19 20 20 21 21 19 18 18 18 18 18 17 17 17 18 18 18 18 18 18 18 18 18 18 18 18 18 18 19 18 18 18 18 18 19 18 18 18 17 18 18 18 17 16 17 16 15 15
19 20 20 21 22 20 18 17 18 18 18 19 18 18 19 19 19 19 19 19 19 19 19 20 19 19 19 20 20 20 20 20 20 20 20 20 20 19 19 19 19 19 19 19 18 18 18 17 16
19 19 20 21 22 20 18 18 19 20 20 20 20 20 20 20 20 20 20 20 21 21 21 21 21 21 21 21 21 22 22 22 22 22 22 21 21 21 21 21 21 21 21 20 19 20 19 19 18
20 21 21 22 22 20 20 20 21 21 21 22 22 21 21 21 22 22 22 22 22 22 22 22 22 23 22 22 23 23 24 24 24 24 24 24 23 23 23 23 23 22 22 22 22 21 21 20 19
21 22 23 23 23 22 22 23 23 24 24 24 24 23 23 23 23 23 23 23 23 24 24 24 24 24 25 24 25 25 25 25 25 25 25 25 25 25 24 25 25 25 24 24 24 23 23 22 22
23 23 24 24 23 23 23 24 25 25 25 25 25 25 24 24 24 24 24 25 25 25 25 25 26 26 27 26 26 26 26 26 26 26 26 26 26 26 26 26 26 26 26 26 25 25 24 24 23
24 24 25 24 24 24 24 25 25 25 26 26 27 27 26 26 26 26 26 27 27 27 27 27 27 28 28 28 28 28 28 28 28 28 28 28 28 28 28 28 27 28 28 28 27 27 27 26 25
25 25 25 25 25 24 24 26 26 27 27 27 28 28 28 27 27 28 28 29 29 29 29 29 29 29 29 30 30 30 30 30 30 31 31 30 30 30 30 30 30 30 30 29 29 29 29 29 28
26 27 26 26 26 25 25 27 27 28 29 29 29 29 29 29 29 29 30 30 31 31 31 32 32 32 32 32 32 32 32 32 32 33 33 33 32 32 32 32 32 32 31 31 31 30 30 30 30
27 28 27 27 27 27 27 28 29 29 30 30 30 30 30 31 31 31 31 31 32 33 33 34 34 34 34 34 34 34 34 34 34 34 34 35 35 34 34 34 34 33 33 33 32 32 32 32 32
28 29 28 29 29 29 29 29 29 30 31 31 32 32 31 32 32 33 32 32 33 34 34 35 35 35 36 36 35 35 35 35 35 36 36 36 37 36 36 36 36 35 35 35 34 34 33 33 33
29 29 30 30 31 31 31 31 31 32 32 33 33 34 34 34 34 34 34 34 34 35 35 36 36 36 36 36 36 36 36 37 37 37 38 38 39 38 38 38 37 37 37 36 35 35 35 35 35
30 31 31 32 32 33 33 33 33 33 34 34 35 35 35 36 36 36 36 36 36 36 36 37 37 38 38 38 38 38 38 38 38 38 39 39 39 40 39 40 39 38 38 38 37 37 37 37 37
30 31 32 32 33 34 35 35 35 35 36 36 36 37 37 37 38 38 38 38 38 38 39 39 39 39 39 40 40 40 40 40 40 40 40 40 40 40 40 40 40 40 40 40 39 39 39 39 39
31 32 32 33 34 35 36 36 36 36 37 38 38 39 39 39 39 39 40 40 40 40 40 41 41 41 41 41 41 41 41 41 42 41 41 41 41 41 41 41 41 41 41 42 41 41 41 41 41
32 33 34 34 35 36 37 38 37 37 38 39 40 40 40 41 41 41 41 41 41 41 41 41 42 42 42 42 43 43 43 43 43 43 43 43 43 43 43 44 43 43 43 43 43 42 42 42 42
32 33 34 35 36 37 38 38 38 39 39 40 40 41 41 42 42 42 42 42 42 42 42 43 43 43 43 43 43 44 45 45 44 44 44 45 45 45 45 45 45 45 45 44 44 44 44 43 43
33 34 35 36 36 37 39 39 39 39 40 41 41 42 42 42 42 42 42 42 42 43 43 43 44 44 44 45 45 45 46 46 45 45 45 46 46 47 46 46 46 46 46 46 46 45 45 45 45
33 35 36 36 37 38 39 40 40 41 41 41 42 42 43 43 43 43 43 43 43 43 43 44 44 44 45 45 45 45 46 46 46 46 47 47 47 48 48 48 48 47 48 48 47 46 47 46 46
34 35 36 37 38 39 40 40 41 41 41 41 41 42 42 42 43 43 43 43 43 43 43 44 44 44 44 45 45 45 46 46 46 46 46 46 46 48 49 49 49 49 49 49 49 48 48 47 47
35 36 37 38 39 40 41 41 40 40 41 41 41 42 42 43 43 43 43 43 43 44 44 45 45 45 45 45 46 46 46 47 47 47 46 47 47 48 49 50 49 49 49 50 50 50 50 49 49
36 37 38 39 40 41 41 42 40 40 40 41 41 42 42 42 43 43 43 44 44 45 45 46 46 46 46 46 46 47 47 47 48 48 47 48 48 48 49 50 50 50 51 51 52 52 51 51 50
36 36 38 39 40 41 40 42 41 39 40 40 40 41 41 42 43 43 44 44 45 45 46 46 47 47 47 47 47 47 47 48 48 48 48 48 48 48 50 50 51 51 52 52 53 53 53 52 51
36 37 38 39 40 41 39 40 41 39 39 39 39 40 40 41 42 43 44 45 45 46 46 46 47 47 47 47 48 47 48 48 48 48 48 48 48 49 50 50 51 51 51 52 53 54 53 53 53
35 36 38 40 40 40 38 39 39 39 38 38 39 39 40 41 41 42 42 44 45 45 46 46 47 47 48 48 48 48 48 49 49 49 48 49 49 49 50 50 51 52 52 52 53 54 54 54 55
35 36 36 38 39 39 38 38 38 37 37 37 38 38 39 40 41 42 42 43 44 44 45 45 46 47 48 48 48 48 48 49 50 49 49 49 49 50 50 51 52 53 53 54 54 54 54 55 55
35 35 35 36 38 38 37 38 38 37 37 37 37 38 38 39 40 41 42 42 42 42 43 44 45 46 47 47 48 48 49 49 49 50 50 50 50 50 51 51 52 53 54 54 55 54 54 55 55
34 34 34 34 36 37 37 37 36 36 37 38 38 38 38 38 39 40 40 41 41 42 43 44 45 46 46 47 48 49 49 49 49 50 51 51 51 52 52 51 52 53 54 55 56 56 56 56 56
32 32 33 34 35 36 37 37 36 36 37 37 37 37 37 38 39 39 39 40 41 42 43 44 45 46 47 48 49 49 50 50 50 51 51 51 52 52 52 53 53 53 54 55 57 57 58 58 58
32 31 32 33 34 35 37 37 36 36 37 38 38 38 38 37 37 37 37 38 40 41 42 43 44 45 46 46 47 49 50 51 51 51 51 51 52 52 53 53 54 54 55 56 57 58 59 59 60
Wind_Direction
243 242 241 242 244 245 246 247 246 245 245 246 247 248 247 247 246 248 249 249 249 249 248 249 249 249 248 247 248 248 249 249 249 247 246 246 246 245 245 246 246 245 243 241 240 239 236 235 237
246 244 243 242 243 245 245 245 244 244 245 246 247 247 248 248 248 249 248 249 249 249 249 250 249 250 249 249 249 250 250 250 250 250 250 249 248 247 246 246 246 246 245 244 243 241 239 237 236
249 248 247 246 244 244 245 244 245 246 246 247 248 248 249 250 250 251 251 251 251 250 251 250 250 250 251 251 251 252 252 251 251 250 250 250 248 248 248 247 246 245 245 245 243 242 241 239 238
249 249 249 249 248 246 246 245 247 249 248 249 250 250 250 250 251 251 252 254 253 252 252 252 251 252 252 252 252 253 253 253 252 251 250 250 249 249 248 248 247 246 245 245 243 242 242 241 240
250 250 250 250 250 249 250 250 249 250 250 250 251 252 251 251 251 251 253 254 254 253 253 253 252 253 253 254 253 253 255 255 253 252 251 250 250 250 249 248 247 246 246 246 244 243 242 242 242
251 252 253 253 252 252 252 252 252 251 251 251 252 252 253 252 252 252 253 254 254 253 253 253 254 254 255 255 255 255 254 254 254 252 251 250 250 250 250 249 247 247 247 247 246 245 244 242 242
252 254 255 255 254 253 253 253 253 252 252 252 252 253 253 253 254 254 255 254 254 254 254 254 255 256 256 256 256 255 255 254 254 253 254 253 252 252 251 250 249 248 248 248 248 247 244 243 242
253 255 255 256 256 255 254 254 254 253 253 253 253 253 253 253 254 255 255 255 255 255 255 255 256 256 257 257 256 255 255 255 254 254 255 255 254 253 252 251 250 249 249 248 248 247 246 244 243
254 255 256 257 257 257 256 256 255 255 255 255 255 255 254 254 255 255 256 257 257 257 257 257 257 257 258 258 258 256 256 256 255 255 254 254 253 252 251 251 250 250 250 249 248 247 247 245 243
256 257 258 259 259 258 258 257 256 256 256 256 256 256 256 256 256 257 258 259 259 259 259 259 259 259 259 259 258 257 256 256 256 256 255 255 254 253 252 252 251 251 251 249 248 247 247 246 244
258 259 260 260 260 259 258 258 257 257 257 257 257 257 256 257 258 258 260 260 261 260 260 260 260 260 260 260 259 258 257 256 256 256 256 255 255 254 253 253 253 252 251 250 249 248 248 248 245
260 260 260 260 260 261 260 260 259 258 258 258 258 258 258 258 259 260 261 261 262 262 262 261 261 260 260 260 259 258 258 257 257 257 257 257 256 255 254 254 253 253 252 251 250 250 249 249 247
261 261 261 261 261 262 262 262 261 259 258 259 259 259 259 260 261 261 262 262 262 263 263 262 262 261 260 260 259 258 258 258 257 257 257 257 256 255 254 254 253 252 252 251 250 250 249 249 248
263 263 262 261 262 262 262 262 262 260 259 259 260 261 261 262 262 263 263 263 264 264 264 263 262 261 261 260 258 258 258 258 257 257 256 256 256 254 253 253 252 252 251 251 252 251 250 250 249
264 264 263 263 262 262 263 262 262 262 261 260 261 262 263 263 263 263 264 264 264 264 264 263 262 261 260 259 258 257 257 257 258 257 256 255 254 254 254 253 253 252 251 251 251 252 251 250 249
266 265 265 264 264 263 263 263 262 263 263 262 262 263 263 264 263 263 264 264 264 264 264 263 262 262 261 259 258 257 257 256 257 256 256 256 255 254 254 253 253 253 252 251 251 251 251 250 250
268 267 267 267 266 266 265 264 263 263 263 263 263 263 264 264 264 263 263 264 264 263 263 263 262 262 261 260 258 258 258 257 256 255 255 256 255 254 254 253 253 253 252 251 251 251 251 251 251
272 271 269 268 268 268 267 267 265 264 264 264 264 264 264 264 263 263 263 264 263 264 263 263 263 262 262 260 259 259 258 257 256 255 255 256 255 254 253 252 252 252 251 251 251 251 251 251 251
274 273 272 271 271 270 269 268 268 267 266 265 265 264 263 262 262 262 263 264 264 264 264 264 264 262 261 260 259 259 257 257 256 256 256 256 256 254 253 253 252 252 251 251 251 251 251 251 251
276 275 275 273 273 272 271 269 269 268 267 267 266 264 263 262 262 262 262 263 264 264 264 263 263 262 262 260 259 258 258 257 257 257 257 257 256 255 254 253 253 253 252 251 250 250 251 251 251
277 277 277 276 275 274 274 271 270 269 268 267 266 265 264 263 262 263 263 263 264 264 264 263 262 262 261 261 259 258 257 257 257 257 257 257 256 255 254 253 253 252 252 250 250 250 251 251 251
278 278 278 278 277 276 275 274 271 270 269 268 266 265 264 264 264 264 263 263 264 264 264 263 262 261 261 261 260 258 258 258 258 258 258 257 257 256 255 253 252 252 251 250 250 250 250 251 251
281 280 279 278 278 277 275 275 273 272 271 269 268 266 265 265 265 265 265 264 264 264 264 263 262 261 260 260 260 258 258 258 259 259 259 259 258 256 255 255 254 252 251 251 250 250 250 250 250
283 283 281 280 279 278 277 276 275 273 272 271 269 268 267 267 266 266 265 265 265 265 264 263 262 261 261 261 259 259 258 258 259 260 260 259 258 257 256 256 254 253 252 250 250 250 250 250 250
286 285 285 283 281 280 279 277 276 276 275 273 272 270 269 269 268 268 267 266 266 265 264 263 261 261 261 260 260 259 259 258 258 259 259 259 258 258 257 256 255 253 252 252 250 249 249 249 249
287 286 284 284 283 282 279 277 277 277 276 275 274 272 270 270 270 269 268 268 267 266 264 262 261 261 261 260 259 259 258 258 258 258 258 259 258 258 257 256 256 254 253 252 250 249 249 249 249
289 286 284 283 282 281 280 280 279 278 277 276 275 274 273 273 272 271 270 269 267 266 264 263 262 261 260 259 259 259 258 258 258 258 259 258 258 258 258 257 256 255 254 252 251 250 250 250 250
291 288 285 283 283 283 281 281 281 280 279 278 277 275 275 274 274 273 271 269 267 266 265 263 262 261 260 259 259 258 258 258 258 258 259 258 258 258 258 257 256 254 253 252 252 252 251 250 251
293 289 286 284 283 283 283 282 282 281 280 279 277 277 277 276 275 274 271 269 268 267 266 265 263 262 261 260 260 259 259 258 258 259 259 259 258 259 259 258 257 255 253 252 252 253 253 252 252
293 291 287 285 284 283 283 284 282 281 280 280 279 279 278 278 277 274 272 270 269 268 267 266 266 264 263 262 261 260 259 258 258 259 259 259 259 259 259 258 258 257 255 254 254 253 253 253 253
Height
5810 5810 5812 5813 5814 5815 5816 5818 5818 5819 5819 5820 5820 5821 5822 5823 5824 5827 5826 5825 5825 5826 5826 5827 5827 5828 5828 5829 5830 5830 5831 5832 5832 5833 5834 5834 5835 5835 5836 5837 5837 5838 5839 5839 5840 5840 5841 5842 5843
5806 5807 5808 5809 5809 5811 5813 5814 5814 5815 5815 5816 5816 5817 5818 5818 5819 5820 5820 5821 5821 5822 5822 5823 5823 5824 5824 5825 5826 5826 5827 5828 5828 5829 5830 5830 5831 5832 5832 5833 5833 5834 5835 5836 5836 5837 5838 5839 5840
5802 5803 5804 5805 5805 5808 5809 5810 5810 5810 5811 5812 5812 5813 5814 5815 5815 5815 5816 5816 5817 5818 5818 5819 5819 5820 5820 5821 5821 5822 5822 5823 5824 5825 5825 5826 5827 5827 5828 5829 5829 5830 5831 5832 5832 5833 5834 5835 5836
5799 5799 5800 5801 5801 5804 5804 5805 5805 5806 5807 5807 5808 5808 5809 5810 5810 5811 5811 5812 5812 5813 5813 5814 5815 5815 5815 5816 5816 5817 5818 5818 5819 5820 5820 5821 5822 5822 5823 5824 5825 5826 5827 5827 5828 5829 5830 5831 5833
5794 5795 5796 5796 5798 5799 5800 5800 5800 5801 5802 5802 5803 5803 5804 5805 5805 5805 5806 5807 5807 5808 5808 5809 5810 5810 5810 5811 5811 5812 5812 5813 5813 5814 5815 5815 5816 5817 5818 5819 5820 5821 5822 5823 5823 5824 5826 5827 5829
5790 5791 5791 5792 5793 5794 5795 5794 5795 5795 5796 5797 5797 5798 5799 5799 5799 5800 5801 5801 5802 5802 5803 5803 5804 5804 5805 5805 5806 5806 5807 5807 5808 5808 5809 5810 5810 5811 5812 5813 5814 5815 5816 5817 5818 5819 5821 5822 5824
5785 5786 5786 5787 5788 5789 5790 5789 5789 5790 5790 5791 5792 5792 5793 5794 5794 5794 5795 5795 5796 5796 5797 5797 5798 5798 5799 5799 5800 5800 5801 5801 5801 5802 5802 5803 5804 5805 5806 5807 5808 5809 5810 5811 5813 5814 5816 5817 5819
5780 5781 5781 5781 5782 5784 5784 5783 5784 5784 5784 5785 5785 5786 5787 5788 5788 5788 5789 5789 5790 5790 5791 5791 5791 5791 5792 5792 5793 5793 5794 5794 5795 5795 5796 5797 5797 5798 5799 5800 5801 5802 5804 5805 5806 5808 5809 5811 5813
5774 5775 5775 5776 5777 5778 5778 5777 5777 5777 5778 5778 5779 5780 5781 5781 5781 5782 5782 5782 5783 5783 5784 5784 5784 5784 5785 5785 5785 5786 5786 5787 5788 5788 5789 5789 5790 5791 5792 5793 5794 5795 5797 5798 5800 5801 5803 5805 5807
5767 5769 5770 5770 5770 5771 5771 5771 5771 5771 5771 5772 5772 5773 5773 5774 5774 5774 5775 5775 5776 5776 5776 5776 5777 5777 5777 5777 5777 5778 5778 5779 5780 5780 5781 5782 5782 5783 5784 5785 5786 5788 5789 5791 5792 5794 5796 5798 5800
5761 5763 5763 5763 5763 5763 5764 5764 5764 5764 5765 5765 5765 5765 5766 5766 5766 5767 5767 5767 5767 5768 5768 5768 5768 5768 5768 5769 5769 5769 5770 5771 5771 5772 5773 5773 5774 5775 5776 5777 5779 5780 5781 5783 5785 5787 5789 5791 5793
5755 5756 5756 5756 5756 5756 5756 5756 5757 5757 5758 5757 5757 5757 5758 5758 5758 5758 5759 5759 5759 5759 5759 5759 5759 5759 5759 5760 5760 5761 5761 5762 5762 5763 5764 5765 5765 5766 5767 5769 5770 5772 5773 5775 5777 5779 5781 5783 5785
5748 5748 5748 5748 5748 5748 5748 5748 5749 5749 5749 5749 5749 5749 5749 5750 5750 5750 5750 5750 5750 5750 5750 5750 5749 5750 5750 5750 5751 5751 5752 5752 5753 5754 5755 5755 5756 5757 5758 5760 5761 5763 5765 5766 5768 5770 5773 5775 5777
5740 5740 5740 5740 5740 5740 5740 5740 5740 5741 5740 5740 5740 5740 5740 5740 5740 5740 5740 5740 5740 5740 5740 5740 5739 5739 5740 5740 5740 5741 5742 5742 5743 5744 5745 5746 5747 5748 5749 5750 5752 5754 5756 5758 5759 5761 5764 5766 5769
5732 5732 5732 5731 5731 5731 5730 5731 5731 5731 5731 5731 5731 5731 5731 5730 5730 5730 5730 5730 5729 5729 5729 5729 5729 5729 5729 5729 5730 5730 5731 5732 5732 5733 5734 5735 5737 5738 5740 5741 5743 5744 5746 5748 5750 5752 5754 5757 5759
5723 5723 5723 5723 5722 5721 5722 5722 5722 5721 5721 5721 5721 5721 5720 5720 5720 5720 5719 5719 5719 5718 5718 5718 5718 5718 5718 5718 5719 5719 5720 5720 5721 5722 5724 5725 5726 5728 5729 5731 5732 5734 5736 5738 5740 5743 5745 5747 5750
5715 5715 5715 5714 5713 5712 5711 5711 5712 5711 5710 5710 5710 5710 5709 5709 5709 5709 5708 5708 5708 5707 5707 5707 5707 5707 5707 5707 5708 5708 5708 5709 5710 5711 5712 5714 5715 5716 5718 5720 5721 5723 5725 5727 5730 5732 5735 5737 5740
5707 5706 5705 5704 5703 5702 5701 5701 5701 5700 5699 5699 5699 5698 5698 5698 5698 5697 5697 5697 5696 5696 5695 5695 5695 5695 5695 5695 5695 5696 5696 5697 5698 5700 5701 5702 5703 5705 5706 5708 5710 5711 5714 5716 5719 5721 5724 5727 5729
5698 5696 5695 5695 5693 5692 5690 5690 5690 5689 5688 5688 5687 5687 5686 5686 5686 5685 5685 5685 5685 5684 5684 5683 5683 5683 5683 5683 5683 5684 5684 5685 5686 5687 5689 5690 5691 5692 5694 5696 5698 5700 5702 5705 5707 5710 5713 5715 5718
5688 5686 5685 5684 5682 5681 5679 5679 5679 5677 5677 5676 5676 5675 5675 5674 5674 5674 5674 5673 5673 5673 5672 5671 5671 5670 5670 5670 5671 5672 5672 5673 5674 5675 5677 5678 5679 5680 5682 5684 5686 5688 5690 5693 5696 5698 5701 5704 5706
5678 5677 5675 5673 5671 5669 5668 5667 5667 5666 5665 5664 5664 5663 5662 5662 5662 5662 5662 5661 5661 5660 5660 5659 5659 5658 5658 5658 5659 5659 5660 5661 5662 5664 5665 5666 5667 5668 5670 5672 5674 5676 5678 5681 5683 5686 5689 5692 5694
5668 5667 5664 5662 5660 5658 5657 5654 5656 5654 5653 5652 5651 5651 5650 5650 5650 5649 5649 5649 5648 5647 5647 5647 5646 5646 5646 5646 5646 5647 5648 5649 5650 5652 5652 5653 5654 5655 5657 5658 5661 5663 5665 5668 5671 5674 5677 5679 5682
5657 5655 5653 5651 5648 5646 5645 5642 5643 5642 5641 5640 5639 5638 5638 5637 5637 5636 5636 5636 5635 5634 5634 5634 5633 5633 5633 5634 5634 5635 5636 5637 5638 5639 5640 5641 5642 5643 5644 5646 5648 5650 5652 5655 5658 5661 5664 5667 5669
5646 5644 5641 5639 5636 5634 5634 5631 5630 5629 5629 5628 5627 5626 5625 5625 5624 5624 5623 5622 5622 5621 5621 5621 5620 5620 5621 5621 5621 5622 5623 5624 5625 5626 5627 5628 5629 5630 5631 5633 5634 5637 5639 5642 5645 5647 5650 5653 5656
5636 5633 5629 5626 5623 5622 5621 5619 5618 5617 5616 5615 5614 5613 5612 5612 5611 5611 5610 5609 5609 5608 5608 5607 5607 5607 5608 5608 5608 5609 5610 5611 5612 5613 5614 5615 5616 5618 5619 5620 5621 5624 5626 5628 5631 5634 5637 5640 5643
5625 5623 5620 5616 5612 5611 5609 5607 5607 5605 5603 5602 5601 5600 5600 5599 5598 5598 5597 5596 5595 5595 5594 5594 5594 5594 5594 5595 5595 5596 5597 5598 5599 5600 5601 5602 5603 5605 5605 5607 5608 5610 5612 5615 5617 5620 5623 5626 5629
5614 5612 5609 5605 5601 5599 5598 5596 5596 5594 5592 5590 5589 5588 5587 5586 5586 5585 5584 5583 5582 5581 5581 5581 5581 5581 5581 5581 5582 5583 5584 5585 5586 5587 5588 5589 5590 5591 5592 5593 5595 5596 5599 5601 5603 5606 5609 5612 5615
5604 5601 5598 5594 5591 5588 5587 5586 5585 5582 5581 5579 5578 5576 5575 5574 5573 5572 5571 5570 5569 5569 5568 5568 5567 5568 5568 5568 5569 5569 5570 5571 5572 5573 5574 5575 5576 5577 5578 5579 5580 5582 5584 5587 5589 5592 5595 5598 5600
5594 5591 5587 5584 5582 5579 5576 5578 5575 5572 5570 5568 5566 5564 5563 5562 5561 5560 5559 5558 5557 5556 5555 5555 5555 5555 5554 5555 5555 5556 5556 5557 5558 5559 5560 5561 5562 5563 5564 5565 5566 5568 5570 5572 5575 5578 5580 5583 5586
5584 5581 5578 5576 5572 5569 5567 5568 5563 5561 5559 5557 5555 5553 5552 5551 5549 5548 5547 5546 5544 5544 5543 5542 5542 5542 5541 5541 5542 5542 5543 5543 5544 5545 5546 5547 5547 5548 5549 5551 5552 5553 5555 5558 5560 5563 5565 5568 5570